DW7854 Weather Reports


Display with metric or nautical units.
time (UTC)temp
F
wind
direction
speed
MPH
gust
MPH
rain 1hr
in
rain 24hr
in
rain mn
in
humidity
%
barometer
mb
20260508120835 54 188 1.0 2.0 0.00 0.00 0.00 94 1014.3
20260508120004 54 173 0.0 2.0 0.00 0.00 0.00 94 1014.6
20260508115935 54 315 1.0 3.0 0.00 0.00 0.00 94 1014.2
20260508114504 54 355 0.0 3.0 0.00 0.00 0.00 95 1014.4
20260508114135 54 7 1.0 4.0 0.00 0.00 0.00 95 1013.7
20260508113235 54 12 1.0 4.0 0.00 0.00 0.00 95 1013.6
20260508113106 54 5 2.0 4.0 0.00 0.00 0.00 95 1014.0
20260508112335 54 17 1.0 4.0 0.00 0.00 0.00 95 1014.1
20260508111604 54 138 0.0 2.0 0.00 0.00 0.00 95 1014.8
20260508111435 54 8 0.0 2.0 0.00 0.00 0.00 95 1014.5
20260508105635 54 6 1.0 2.0 0.00 0.00 0.00 95 1014.7
20260508104735 54 24 1.0 2.0 0.00 0.00 0.00 95 1014.7
20260508104607 54 5 0.0 2.0 0.00 0.00 0.00 95 1015.1
20260508103004 54 33 1.0 2.0 0.00 0.00 0.00 95 1014.5
20260508102935 54 30 1.0 2.0 0.00 0.00 0.00 95 1014.1
20260508102035 54 21 1.0 3.0 0.00 0.00 0.00 95 1014.1
20260508101508 53 355 1.0 5.0 0.00 0.00 0.00 96 1014.5
20260508101135 54 9 1.0 5.0 0.00 0.00 0.00 95 1014.0
20260508100235 54 1 0.0 1.0 0.00 0.00 0.00 95 1014.0
20260508100105 53 360 0.0 0.0 0.00 0.00 0.00 95 1014.4
20260508095335 54 3 0.0 2.0 0.00 0.00 0.00 95 1014.3
20260508094503 53 360 0.0 2.0 0.00 0.00 0.00 95 1014.4
20260508093535 53 47 0.0 3.0 0.00 0.00 0.00 95 1013.9
20260508093104 53 120 0.0 0.0 0.00 0.00 0.00 95 1014.4
20260508092635 53 0 0.0 0.0 0.00 0.00 0.00 95 1014.2
20260508091735 53 0 0.0 0.0 0.00 0.00 0.00 95 1014.1
20260508091605 52 120 0.0 0.0 0.00 0.00 0.00 95 1014.5
20260508090835 53 0 0.0 0.0 0.00 0.00 0.00 95 1013.8
20260508090106 52 120 0.0 0.0 0.00 0.00 0.00 95 1014.3
20260508085935 52 0 0.0 0.0 0.00 0.00 0.00 95 1013.9
20260508085035 52 0 0.0 0.0 0.00 0.00 0.00 94 1014.0
20260508084504 52 120 0.0 0.0 0.00 0.00 0.00 94 1014.5
20260508083235 52 0 0.0 0.0 0.00 0.00 0.00 94 1014.3
20260508083104 52 120 0.0 0.0 0.00 0.00 0.00 94 1014.7
20260508082335 52 0 0.0 0.0 0.00 0.00 0.00 94 1014.2
20260508081508 52 120 0.0 0.0 0.00 0.00 0.00 94 1014.5
20260508081435 52 0 0.0 0.0 0.00 0.00 0.00 94 1014.0
20260508080535 52 0 0.0 0.0 0.00 0.00 0.00 94 1014.0
20260508080010 52 120 0.0 0.0 0.00 0.00 0.00 93 1014.5
20260508075635 53 0 0.0 0.0 0.00 0.00 0.00 93 1014.2
20260508074735 53 0 0.0 0.0 0.00 0.00 0.00 94 1014.3
20260508074503 52 120 0.0 0.0 0.00 0.00 0.00 94 1014.7
20260508073835 53 0 0.0 0.0 0.00 0.00 0.00 94 1014.4
20260508073004 52 120 0.0 0.0 0.00 0.00 0.00 93 1014.7
20260508072935 53 0 0.0 0.0 0.00 0.00 0.00 93 1014.2
20260508072035 53 0 0.0 0.0 0.00 0.00 0.00 93 1014.3
20260508071608 53 120 0.0 0.0 0.00 0.00 0.00 93 1014.6
20260508070235 54 0 0.0 0.0 0.00 0.00 0.00 93 1014.3
20260508070002 53 120 0.0 0.0 0.00 0.00 0.00 93 1014.8
20260508064509 53 120 0.0 0.0 0.00 0.00 0.00 93 1015.1
20260508064435 54 0 0.0 0.0 0.00 0.00 0.00 93 1014.8
20260508063012 54 120 0.0 0.0 0.00 0.00 0.00 93 1015.1
20260508062635 54 0 0.0 0.0 0.00 0.00 0.00 92 1014.8
20260508061735 54 0 0.0 0.0 0.00 0.00 0.00 92 1014.6
20260508061603 54 120 0.0 0.0 0.00 0.00 0.00 92 1015.0
20260508060835 54 0 0.0 0.0 0.00 0.00 0.00 92 1014.8
20260508060008 54 120 0.0 0.0 0.00 0.00 0.00 92 1015.0
20260508055035 55 0 0.0 0.0 0.00 0.00 0.00 92 1014.6
20260508054603 55 120 0.0 0.0 0.00 0.00 0.00 92 1015.0
20260508053235 55 0 0.0 0.0 0.00 0.00 0.00 91 1014.6
20260508053005 55 120 0.0 0.0 0.00 0.00 0.00 91 1014.9
20260508052335 55 0 0.0 0.0 0.00 0.00 0.00 91 1014.6
20260508051604 55 120 0.0 0.0 0.00 0.00 0.00 91 1015.2
20260508051435 56 0 0.0 0.0 0.00 0.00 0.00 91 1014.8
20260508050535 56 0 0.0 0.0 0.00 0.00 0.00 91 1014.6
20260508050009 55 120 0.0 0.0 0.00 0.00 0.00 91 1014.9
20260508044735 56 0 0.0 0.0 0.00 0.00 0.00 90 1014.8
20260508044503 56 120 0.0 0.0 0.00 0.00 0.00 90 1015.1
20260508043835 56 0 0.0 0.0 0.00 0.00 0.00 90 1014.8
20260508043002 56 120 0.0 0.0 0.00 0.00 0.00 90 1015.2
20260508042035 57 0 0.0 0.0 0.00 0.00 0.00 89 1014.9
20260508041602 57 120 0.0 0.0 0.00 0.00 0.00 89 1015.2
20260508040235 57 0 0.0 0.0 0.00 0.00 0.00 89 1015.0
20260508040105 57 120 0.0 0.0 0.00 0.00 0.00 89 1015.4
20260508035335 57 0 0.0 0.0 0.00 0.00 0.00 89 1014.8
20260508034504 57 120 0.0 0.0 0.00 0.00 0.00 88 1015.1
20260508033535 58 0 0.0 0.0 0.00 0.00 0.00 88 1014.9
20260508033105 58 120 0.0 0.0 0.00 0.00 0.00 88 1015.2
20260508032635 58 0 0.0 0.0 0.00 0.00 0.00 87 1014.7
20260508031735 58 0 0.0 0.0 0.00 0.00 0.00 87 1014.6
20260508031604 58 120 0.0 0.0 0.00 0.00 0.00 87 1014.9
20260508030835 59 0 0.0 0.0 0.00 0.00 0.00 86 1014.6
20260508030105 59 120 0.0 0.0 0.00 0.00 0.00 86 1015.0
20260508025935 59 0 0.0 0.0 0.00 0.00 0.00 85 1014.6
20260508025035 59 0 0.0 0.0 0.00 0.00 0.00 85 1014.7
20260508024507 59 120 0.0 0.0 0.00 0.00 0.00 85 1015.0
20260508024135 60 0 0.0 0.0 0.00 0.00 0.00 85 1014.6
20260508023103 59 120 0.0 0.0 0.00 0.00 0.00 85 1014.7
20260508022335 60 0 0.0 0.0 0.00 0.00 0.00 84 1014.1
20260508021507 60 120 0.0 0.0 0.00 0.00 0.00 84 1014.5
20260508021435 60 0 0.0 0.0 0.00 0.00 0.00 84 1014.1
20260508020006 61 120 0.0 0.0 0.00 0.00 0.00 83 1014.6
20260508015635 61 0 0.0 0.0 0.00 0.00 0.00 83 1014.2
20260508014603 62 120 0.0 0.0 0.00 0.00 0.00 81 1014.6
20260508013835 62 120 0.0 1.0 0.00 0.00 0.00 81 1014.1
20260508013003 62 120 0.0 2.0 0.00 0.00 0.00 79 1014.4
20260508012935 63 120 0.0 2.0 0.00 0.00 0.00 79 1014.1
20260508012035 64 120 0.0 2.0 0.00 0.00 0.00 78 1014.1
20260508011603 63 120 0.0 1.0 0.00 0.00 0.00 77 1014.5
20260508010235 65 116 0.0 1.0 0.00 0.00 0.00 76 1014.0
20260508010106 65 120 0.0 1.0 0.00 0.00 0.00 75 1014.4
20260508005335 66 88 0.0 1.0 0.00 0.00 0.00 74 1013.9
20260508004604 66 125 0.0 1.0 0.00 0.00 0.00 72 1014.2
20260508004435 66 327 0.0 1.0 0.00 0.00 0.00 72 1013.8
20260508003535 67 0 0.0 0.0 0.00 0.00 0.00 73 1013.7
20260508003108 66 61 0.0 1.0 0.00 0.00 0.00 72 1014.0
20260508002634 67 321 0.0 1.0 0.00 0.00 0.00 72 1013.7
20260508001735 68 0 0.0 0.0 0.00 0.00 0.00 70 1013.8
20260508001504 67 355 0.0 0.0 0.00 0.00 0.00 71 1014.1
20260508000834 68 139 0.0 2.0 0.00 0.00 0.00 69 1013.8
20260508000104 68 109 0.0 2.0 0.00 0.00 0.00 68 1014.2
20260507235934 68 134 1.0 2.0 0.00 0.00 0.00 68 1013.8
20260507235035 68 133 1.0 3.0 0.00 0.00 0.00 67 1013.9
20260507234503 68 134 1.0 3.0 0.00 0.00 0.00 67 1014.4
20260507233234 69 177 1.0 3.0 0.00 0.00 0.00 67 1013.9
20260507233002 69 161 1.0 3.0 0.00 0.00 0.00 66 1014.3
20260507231502 69 180 1.0 4.0 0.00 0.00 0.00 63 1014.4
20260507230534 70 151 2.0 5.0 0.00 0.00 0.00 63 1013.9
20260507230008 70 158 2.0 5.0 0.00 0.02 0.00 63 1014.3
20260507225634 70 153 3.0 5.0 0.00 0.00 0.00 62 1014.0
20260507224734 70 138 3.0 6.0 0.00 0.00 0.00 62 1014.0
20260507224505 70 134 1.0 6.0 0.00 0.02 0.00 63 1014.3
20260507223834 71 154 4.0 6.0 0.00 0.00 0.00 61 1013.9
20260507223005 71 176 2.0 6.0 0.00 0.02 0.00 61 1014.6
20260507222934 71 151 3.0 6.0 0.00 0.00 0.00 61 1014.1
20260507222034 72 163 4.0 7.0 0.00 0.01 0.00 59 1014.1
20260507221603 72 153 3.0 7.0 0.00 0.02 0.00 59 1014.6
20260507221134 73 156 4.0 7.0 0.00 0.02 0.00 55 1014.1
20260507220235 74 158 2.0 4.0 0.00 0.02 0.00 51 1013.9
20260507215334 74 197 0.0 3.0 0.00 0.02 0.00 54 1014.0
20260507214608 73 236 0.0 2.0 0.00 0.02 0.00 51 1014.5
20260507214434 74 100 0.0 2.0 0.00 0.02 0.00 50 1014.1
20260507213534 74 67 1.0 3.0 0.00 0.02 0.00 49 1014.1
20260507213007 74 61 0.0 2.0 0.00 0.02 0.00 51 1014.6
20260507212634 74 60 1.0 3.0 0.00 0.02 0.00 52 1014.1
20260507211734 75 169 2.0 5.0 0.00 0.02 0.00 47 1014.1
20260507211616 75 40 1.0 5.0 0.00 0.02 0.00 48 1014.6
20260507210005 73 108 1.0 4.0 0.00 0.02 0.00 52 1014.8
20260507205934 74 96 2.0 5.0 0.00 0.02 0.00 51 1014.3
20260507205034 74 135 3.0 6.0 0.00 0.02 0.00 51 1014.4
20260507204607 74 153 2.0 6.0 0.00 0.02 0.00 54 1014.8
20260507204134 74 139 3.0 6.0 0.00 0.02 0.00 50 1014.6
20260507203005 73 104 1.0 5.0 0.00 0.02 0.00 52 1015.1
20260507202334 73 55 2.0 6.0 0.00 0.02 0.00 52 1014.6
20260507201506 72 325 0.0 6.0 0.00 0.02 0.00 55 1015.4
20260507201434 73 113 1.0 5.0 0.00 0.02 0.00 54 1015.0
20260507200111 72 28 1.0 6.0 0.00 0.02 0.00 52 1015.6
20260507195634 72 15 2.0 6.0 0.00 0.02 0.00 53 1015.1
20260507194506 70 88 1.0 5.0 0.00 0.02 0.00 58 1015.3
20260507193834 71 343 3.0 5.0 0.00 0.02 0.00 53 1015.0
20260507193105 70 360 2.0 7.0 0.00 0.02 0.00 54 1015.7
20260507192934 71 310 4.0 7.0 0.00 0.02 0.00 54 1015.3
20260507192034 71 343 3.0 6.0 0.00 0.02 0.00 52 1015.3
20260507191505 71 360 3.0 7.0 0.00 0.02 0.00 52 1015.9
20260507191134 71 242 2.0 7.0 0.00 0.02 0.00 53 1015.4
20260507190108 70 28 3.0 7.0 0.00 0.02 0.00 53 1015.9
20260507185334 70 91 4.0 8.0 0.00 0.02 0.00 55 1015.5
20260507184505 69 90 3.0 8.0 0.00 0.03 0.00 56 1016.3
20260507184434 70 340 3.0 7.0 0.00 0.02 0.00 56 1015.8
20260507183534 70 316 3.0 8.0 0.00 0.02 0.00 53 1015.9
20260507183107 70 278 1.0 5.0 0.00 0.03 0.00 55 1016.6
20260507182634 70 334 1.0 5.0 0.00 0.02 0.00 53 1016.1
20260507181734 69 312 3.0 8.0 0.00 0.02 0.00 55 1016.5
20260507181605 68 324 4.0 8.0 0.00 0.03 0.00 56 1017.0
20260507180834 69 320 4.0 9.0 0.00 0.02 0.00 53 1016.6
20260507180004 69 316 4.0 9.0 0.00 0.05 0.00 54 1017.2
20260507175034 70 160 2.0 6.0 0.00 0.04 0.00 56 1016.9
20260507174507 69 152 3.0 6.0 0.00 0.05 0.00 62 1017.4
20260507174134 69 60 2.0 5.0 0.00 0.04 0.00 61 1017.0
20260507173105 68 21 1.0 6.0 0.00 0.05 0.00 59 1017.6
20260507171509 68 146 3.0 6.0 0.00 0.05 0.00 59 1017.9
20260507170534 67 349 2.0 6.0 0.00 0.05 0.00 60 1017.6
20260507170106 66 79 2.0 6.0 0.00 0.05 0.00 59 1018.2
20260507165634 67 350 3.0 6.0 0.00 0.05 0.00 61 1017.7
20260507164607 67 292 3.0 7.0 0.00 0.05 0.00 62 1018.5
20260507163834 67 72 2.0 5.0 0.00 0.05 0.00 59 1018.0
20260507163103 66 132 2.0 7.0 0.00 0.05 0.00 61 1018.6
20260507162934 66 45 2.0 8.0 0.00 0.05 0.00 59 1018.1
20260507162034 66 77 1.0 4.0 0.00 0.05 0.00 64 1018.0
20260507161504 66 119 0.0 4.0 0.00 0.05 0.00 62 1018.6
20260507161134 66 37 2.0 6.0 0.00 0.05 0.00 61 1018.1
20260507160234 67 144 2.0 4.0 0.00 0.05 0.00 60 1018.2
20260507160010 67 350 1.0 4.0 0.00 0.05 0.00 64 1018.7
20260507155334 66 89 2.0 5.0 0.00 0.05 0.00 62 1018.2
20260507154507 65 105 1.0 5.0 0.00 0.05 0.00 64 1018.8
20260507154434 66 76 2.0 5.0 0.00 0.05 0.00 64 1018.2
20260507153534 65 21 2.0 6.0 0.00 0.05 0.00 70 1018.3
20260507153111 64 53 3.0 6.0 0.00 0.05 0.00 64 1018.8
20260507152634 64 347 2.0 5.0 0.00 0.05 0.00 64 1018.4
20260507151504 64 116 1.0 6.0 0.00 0.05 0.00 66 1019.1
20260507150834 64 25 2.0 5.0 0.00 0.05 0.00 67 1018.7
20260507150105 63 48 2.0 5.0 0.00 0.05 0.00 66 1019.3
20260507145034 63 84 3.0 8.0 0.00 0.05 0.00 68 1018.7
20260507144605 63 74 2.0 5.0 0.00 0.05 0.00 71 1019.4
20260507144134 63 41 2.0 7.0 0.00 0.05 0.00 70 1018.7
20260507143234 62 66 1.0 6.0 0.00 0.05 0.00 74 1018.8
20260507143114 62 97 2.0 6.0 0.00 0.05 0.00 76 1019.3
20260507142334 61 72 2.0 5.0 0.00 0.05 0.00 75 1018.8
20260507141503 59 350 2.0 5.0 0.00 0.05 0.00 76 1019.3
20260507141434 60 47 1.0 6.0 0.00 0.05 0.00 76 1018.7
20260507140004 58 321 2.0 5.0 0.00 0.06 0.00 84 1019.2
20260507135634 58 340 3.0 5.0 0.00 0.06 0.00 86 1018.7
20260507134734 56 327 1.0 5.0 0.00 0.06 0.00 95 1018.7
20260507134509 56 331 2.0 5.0 0.00 0.06 0.00 96 1019.3
20260507133834 56 170 1.0 2.0 0.00 0.06 0.00 97 1018.7
20260507133134 55 221 0.0 2.0 0.00 0.06 0.00 97 1019.1
20260507132934 55 164 1.0 2.0 0.00 0.06 0.00 97 1018.4
20260507132034 55 141 2.0 5.0 0.00 0.06 0.00 97 1018.3
20260507131604 54 146 2.0 4.0 0.00 0.06 0.00 97 1018.9
20260507130234 52 174 1.0 2.0 0.00 0.06 0.00 97 1017.9
20260507130005 52 126 1.0 2.0 0.00 0.06 0.00 97 1018.4
20260507125334 51 201 1.0 2.0 0.00 0.06 0.00 96 1017.7
20260507124605 50 220 0.0 2.0 0.00 0.06 0.00 96 1018.2
20260507124434 50 236 0.0 2.0 0.00 0.06 0.00 96 1017.6
20260507123534 49 0 0.0 0.0 0.00 0.06 0.00 96 1017.4
20260507123105 48 350 0.0 0.0 0.00 0.06 0.00 95 1017.9
20260507122634 49 55 0.0 1.0 0.00 0.06 0.00 95 1017.2
20260507121734 49 302 0.0 1.0 0.00 0.06 0.00 95 1017.1
20260507121504 48 75 0.0 1.0 0.00 0.06 0.00 95 1017.7